Tracking 19574 objects as of 16-Feb-2019
HD Live streaming from Space Station
objects crossing your sky now

GARUDA 1

Track GARUDA 1 now!
GARUDA 1 is classified as:


NORAD ID: 26089
Int'l Code: 2000-011A
Perigee: 35,864.1 km
Apogee: 35,920.6 km
Inclination: 3.1 °
Period: 1,441.1 minutes
Semi major axis: 42263 km
RCS: 16.0243 m2 (large)
Launch date: February 12, 2000
Source: Indonesia (INDO)
Launch site: TYURATAM MISSILE AND SPACE COMPLEX (TTMTR)

L-band; mobile telephone communications.
aabbcc
Your satellite tracking list
Your tracking list is empty




NASA's NSSDC Master Catalog

Two Line Element Set (TLE):
1 26089U 00011A   19046.76859005 -.00000141 +00000-0 +00000-0 0  9994
2 26089 003.1218 099.6221 0006689 218.0514 095.4324 00.99921119014891
Source of the keplerian elements: AFSPC